Station Nord

KL  EN  DA
ASIAQ
Weather Now GREENLAND SURVEY
Updated [WGT/WGST] Temperature [°C] Wind [m/s] Air pressure [hPa] Relative humidity [%] Precipitation [mm]
Present Wind chill Speed Max
27.09 02:00-8,50,0n/an/a102491n/a
27.09 01:00-8,50,0n/an/a102489n/a
27.09 00:00-8,30,0n/an/a102392n/a
26.09 23:00-9,1-16,04,6 ⇘6,2102391n/a
26.09 22:00-8,8-15,64,6 ⇘7,2102291n/a
26.09 21:00-8,5-13,83,1 ⇓5,1102291n/a
26.09 20:00-8,6-15,75,1 ⇓8,8102190n/a
26.09 19:00-8,1-15,55,7 ⇓7,7102188n/a
26.09 18:00-7,4-15,87,7 ⇓10,3102085n/a
26.09 17:00-6,6-15,38,8 ⇓10,8102087n/a
26.09 16:00-5,7-13,16,7 ⇓8,2101989n/a
26.09 15:00-5,6-12,45,7 ⇓6,7101993n/a
26.09 14:00-5,90,0n/an/a101993n/a
26.09 13:00-6,00,0n/an/a101994n/a
26.09 12:00-6,80,0n/an/a101994n/a
26.09 11:00-7,40,0n/an/a101994n/a
26.09 10:00-7,40,0n/an/a101994n/a
26.09 09:00-6,8-14,87,2 ⇓9,8101994n/a
26.09 08:00-6,90,0n/an/a101994n/a
26.09 07:00-7,3-13,74,6 ⇓5,7101994n/a
26.09 06:00-7,6-13,33,6 ⇘5,1101994n/a
26.09 05:00-8,00,0n/an/a101894n/a
26.09 04:00-8,5-12,52,1 ⇒2,6101894n/a
26.09 03:00-8,50,0n/an/a101894n/a
26.09 02:00-8,20,0n/an/a101894n/a
Position: (81.603333333,-16.66333333)

[Back]